TIANMU-1 11

Last updated on Wed Sep 23 2026 00:03:10 GMT+0000 (Coordinated Universal Time)

1 58645U 23205A 26265.60021042 .00003658 00000+0 13718-3 0 9990 2 58645 97.3431 285.6757 0009358 30.7440 329.4346 15.27829790152391
UTC large
Height (km)
Speed (km/s)
/
Latitude / Longitude
Inclination (degrees)
Orbital Period (minutes)
Azimuth
Elevation
Range (km)
Doppler Factor

Next 0 passes for location: London (51.5072 / 0.1276)

No passes found over London.
TIANMU-1 11